Location: Zlin
(49.2330°N, 17.6670°E)
Time: 00:49:00
(UTC+02:00)

ISS - Visible Passes

Search period start: 16 July 2018 00:00
Search period end: 26 July 2018 00:00
Orbit: 402 x 408 km, 51.6° (Epoch: 16 July)

Date Brightness Start Highest point End Pass type
(mag) Time Alt. Az. Time Alt. Az. Time Alt. Az.
16 Jul -3.6 00:59:18 56° E 00:59:18 56° E 01:02:03 10° ENE visible
16 Jul -3.1 02:32:08 10° W 02:35:23 54° N 02:38:38 10° ENE visible
16 Jul -3.6 04:08:47 10° WNW 04:12:05 77° NNE 04:15:23 10° ESE visible
17 Jul -2.0 00:08:36 21° E 00:08:36 21° E 00:09:56 10° ENE visible
17 Jul -3.3 01:41:13 21° W 01:43:14 61° N 01:46:31 10° ENE visible
17 Jul -3.3 03:16:42 10° WNW 03:19:58 62° N 03:23:15 10° E visible
17 Jul -1.2 23:17:38 11° E 23:17:38 11° E 23:17:43 10° E visible
18 Jul -3.7 00:50:13 45° W 00:51:06 75° NNW 00:54:24 10° ENE visible
18 Jul -3.1 02:24:35 10° WNW 02:27:49 55° N 02:31:05 10° E visible
18 Jul -3.9 04:01:07 10° WNW 04:04:25 69° SSW 04:07:41 10° ESE visible
18 Jul -4.0 23:58:12 48° WSW 23:59:00 81° SSE 00:02:18 10° ENE visible
19 Jul -3.1 01:32:24 10° W 01:35:39 53° N 01:38:53 10° ENE visible
19 Jul -3.8 03:09:01 10° WNW 03:12:20 85° NNE 03:15:38 10° ESE visible
19 Jul -1.8 21:29:50 10° SSE 21:31:01 12° SE 21:32:13 10° ESE visible
19 Jul -3.8 23:03:43 10° SW 23:06:56 55° SSE 23:10:10 10° ENE visible
20 Jul -3.2 00:40:13 10° W 00:43:27 58° N 00:46:44 10° ENE visible
20 Jul -3.5 02:16:54 10° WNW 02:20:11 66° NNE 02:23:29 10° E visible
20 Jul -3.3 03:53:30 10° W 03:56:36 38° SSW 03:59:40 10° SE visible
20 Jul -3.3 22:11:53 10° SW 22:14:54 35° SSE 22:17:57 10° E visible
20 Jul -3.6 23:48:01 10° W 23:51:17 69° NNW 23:54:35 10° ENE visible
21 Jul -3.2 01:24:45 10° WNW 01:28:01 57° N 01:31:16 10° E visible
21 Jul -3.9 03:01:18 10° WNW 03:04:34 59° SSW 03:07:48 10° SE visible
21 Jul -2.6 21:20:19 10° SSW 21:22:56 22° SE 21:25:35 10° E visible
21 Jul -3.9 22:55:50 10° WSW 22:59:07 89° NW 23:02:26 10° ENE visible
22 Jul -3.1 00:32:34 10° WNW 00:35:48 53° N 00:39:02 10° E visible
22 Jul -4.0 02:09:09 10° WNW 02:12:27 86° SSW 02:15:45 10° ESE visible
22 Jul -2.5 03:46:05 10° W 03:48:36 20° SW 03:51:07 10° SSE visible
22 Jul -3.9 22:03:45 10° WSW 22:07:00 64° SSE 22:10:16 10° ENE visible
22 Jul -3.1 23:40:20 10° W 23:43:35 55° N 23:46:50 10° ENE visible
23 Jul -3.7 01:17:00 10° WNW 01:20:18 72° NNE 01:20:48 57° ENE visible
23 Jul -3.4 22:48:05 10° W 22:51:21 64° NNW 22:54:38 10° ENE visible
24 Jul -3.3 00:24:49 10° WNW 00:28:05 59° N 00:29:05 38° ENE visible
24 Jul -1.2 02:01:22 10° WNW 02:01:41 12° WNW 02:01:41 12° WNW visible
24 Jul -3.7 21:55:52 10° WSW 21:59:09 80° NNW 22:02:27 10° ENE visible
24 Jul -3.1 23:32:36 10° WNW 23:35:50 54° N 23:38:04 18° ENE visible
25 Jul -2.1 01:09:10 10° WNW 01:10:41 25° WNW 01:10:41 25° WNW visible
25 Jul -3.1 22:40:21 10° W 22:43:35 54° N 22:46:49 10° ENE visible
